Weather History for KTRI - August, 2013

Change the Weather History Date:

Monday, August 19, 2013

  Actual Average Record
Temperature  
Mean Temperature 73 °F 74 °F  
Max Temperature 80 °F 85 °F 96 °F (2007)
Min Temperature 66 °F 63 °F 52 °F (1943)
Degree Days  
Heating Degree Days 0 0  
Month to date heating degree days 0 0  
Since 1 June heating degree days 0 11  
Since 1 July heating degree days 0 0  
Cooling Degree Days 8 9  
Month to date cooling degree days 153 173  
Year to date cooling degree days 743 751  
Since 1 June cooling degree days 671 678  
Growing Degree Days 23 (Base 50)    
Moisture  
Dew Point 65 °F    
Average Humidity 74    
Maximum Humidity 93    
Minimum Humidity 54    
Precipitation  
Precipitation 0.06 in 0.11 in 2.14 in (1960)
Month to date precipitation 4.41 2.27  
Year to date precipitation 44.58 28.25  
Snow  
Snow 0.00 in 0.00 in - ()
Month to date snowfall 0.0 0.0  
Since 1 June snowfall 0.0 0.0  
Since 1 July snowfall 0.0 0.0  
Snow Depth 0.00 in    
Sea Level Pressure  
Sea Level Pressure 30.12 in    
Wind  
Wind Speed 1 mph (SE)    
Max Wind Speed 7 mph    
Max Gust Speed 10 mph    
Visibility 10 miles    
Events Rain    
T = Trace of Precipitation, MM = Missing Value Source: NWS Daily Summary

Daily Weather History Graph

Daily Weather History Graph

Search for Another Location

Airport or City:

Trip Planner

Search our weather history database for the weather conditions in past years. The results will help you decide how hot, cold, wet, or windy it might be!

Date:

Astronomy

Aug. 19, 2013 Rise Set
Actual Time 6:50 AM EDT 8:14 PM EDT
Civil Twilight 6:23 AM EDT 8:42 PM EDT
Nautical Twilight 5:51 AM EDT 9:14 PM EDT
Astronomical Twilight 5:16 AM EDT 9:48 PM EDT
Moon 7:05 PM EDT (8/19) 5:09 AM EDT (8/19)
Length of Visible Light 14h 18m
Length of Day
13h 24m
Waxing Gibbous, 97% of the Moon is Illuminated
Aug 19
Waxing Gibbous
Aug 20
Full
Aug 28
Last Quarter
Sep 5
New
Sep 12
First Quarter

Hourly Weather History & Observations

Time (EDT) Temp. Heat Index Dew Point Humidity Pressure Visibility Wind Dir Wind Speed Gust Speed Precip Events Conditions
12:53 AM 66.9 °F - 64.9 °F 93% 30.15 in 10.0 mi Calm Calm - 0.00 in   Overcast
1:53 AM 66.0 °F - 64.9 °F 96% 30.14 in 8.0 mi Calm Calm - 0.00 in Rain Light Rain
2:53 AM 66.9 °F - 64.9 °F 93% 30.12 in 9.0 mi Calm Calm - 0.03 in Rain Light Rain
3:53 AM 66.9 °F - 64.0 °F 90% 30.12 in 10.0 mi Calm Calm - 0.01 in   Overcast
4:03 AM 66.0 °F - 64.0 °F 93% 30.18 in 10.0 mi Calm Calm - N/A   Mostly Cloudy
4:17 AM 66.0 °F - 64.0 °F 93% 30.18 in 10.0 mi Calm Calm - N/A   Mostly Cloudy
4:53 AM 66.9 °F - 64.0 °F 90% 30.11 in 10.0 mi ESE 4.6 mph - 0.00 in   Mostly Cloudy
5:53 AM 66.0 °F - 64.0 °F 93% 30.10 in 10.0 mi Calm Calm - 0.01 in   Overcast
6:53 AM 66.0 °F - 64.9 °F 96% 30.11 in 10.0 mi Calm Calm - 0.00 in   Overcast
7:53 AM 66.9 °F - 64.0 °F 90% 30.11 in 10.0 mi East 4.6 mph - N/A   Overcast
8:53 AM 66.9 °F - 64.9 °F 93% 30.12 in 10.0 mi Calm Calm - 0.01 in   Overcast
9:53 AM 68.0 °F - 64.0 °F 87% 30.13 in 10.0 mi Calm Calm - 0.00 in   Overcast
10:53 AM 69.1 °F - 64.9 °F 87% 30.14 in 10.0 mi Calm Calm - N/A   Overcast
11:22 AM 70.0 °F - 64.9 °F 84% 30.20 in 10.0 mi ESE 3.5 mph - N/A   Mostly Cloudy
11:36 AM 70.0 °F - 64.9 °F 84% 30.20 in 10.0 mi Calm Calm - N/A   Overcast
11:39 AM 70.0 °F - 64.9 °F 84% 30.20 in 10.0 mi ESE 3.5 mph - N/A   Mostly Cloudy
11:53 AM 72.0 °F - 64.9 °F 78% 30.13 in 10.0 mi Calm Calm - N/A   Mostly Cloudy
12:53 PM 73.9 °F - 64.9 °F 73% 30.13 in 10.0 mi South 3.5 mph - N/A   Overcast
1:53 PM 75.0 °F - 64.0 °F 69% 30.12 in 10.0 mi Calm Calm - N/A   Overcast
2:53 PM 77.0 °F - 64.0 °F 64% 30.10 in 10.0 mi Calm Calm - N/A   Mostly Cloudy
3:53 PM 79.0 °F - 63.0 °F 58% 30.07 in 10.0 mi Calm Calm - N/A   Mostly Cloudy
4:53 PM 79.0 °F - 61.0 °F 54% 30.06 in 10.0 mi Calm Calm - N/A   Mostly Cloudy
5:53 PM 80.1 °F 81.5 °F 63.0 °F 56% 30.05 in 10.0 mi Calm Calm - N/A   Scattered Clouds
6:53 PM 78.1 °F - 64.9 °F 64% 30.04 in 10.0 mi Calm Calm - N/A   Mostly Cloudy
7:53 PM 75.0 °F - 66.9 °F 76% 30.06 in 10.0 mi Calm Calm - N/A   Mostly Cloudy
8:53 PM 70.0 °F - 66.0 °F 87% 30.07 in 10.0 mi Calm Calm - N/A   Scattered Clouds
9:53 PM 69.1 °F - 64.9 °F 87% 30.09 in 10.0 mi Calm Calm - N/A   Mostly Cloudy
10:53 PM 69.1 °F - 66.0 °F 90% 30.09 in 10.0 mi Calm Calm - N/A   Mostly Cloudy
11:53 PM 69.1 °F - 66.0 °F 90% 30.10 in 10.0 mi Calm Calm - N/A   Mostly Cloudy